Location: Unspecified
(0.0000°N, 0.0000°E)
Time: 21:46:55
(UTC+00:00)

Hubble Space Telescope - Pass Details

Date: 21 January 2018
Orbit: 537 x 541 km, 28.5° (Epoch: 23 January)

Event Time Altitude Azimuth Distance (km) Brightness Sun altitude
Exits shadow 04:13:57 42° 101° (ESE) 768 1.9 -27.4°
Drops below altitude 10° 04:16:50 10° 115° (ESE) 1,789 4.4 -26.7°
Sets 04:19:06 0° 117° (ESE) 2,681 5.7 -26.2°
